Location: Podia
(1.5569°N, 32.3469°E)
Time: 20:04:29
(UTC+00:00)

ISS - Visible Passes

Search period start: 11 August 2020 00:00
Search period end: 21 August 2020 00:00
Orbit: 418 x 420 km, 51.6° (Epoch: 12 August)

Date Brightness Start Highest point End Pass type
(mag) Time Alt. Az. Time Alt. Az. Time Alt. Az.
11 Aug -3.8 17:06:49 10° NNW 17:10:08 67° NE 17:10:42 53° ESE visible
12 Aug -2.6 16:19:42 10° N 16:22:35 27° NE 16:25:31 10° ESE visible
13 Aug -1.4 17:09:04 10° WNW 17:11:38 20° SW 17:14:05 11° S visible
14 Aug -2.8 16:20:50 10° NW 16:24:05 46° SW 16:27:19 10° SSE visible
16 Aug -1.9 03:10:29 10° S 03:13:28 30° SE 03:16:27 10° ENE visible
17 Aug -0.9 02:24:04 10° SSE 02:25:52 14° SE 02:27:40 10° E visible
18 Aug -3.2 03:12:05 13° SW 03:14:51 41° NW 03:18:02 10° NNE visible
19 Aug -3.7 02:27:15 75° SE 02:27:15 75° SE 02:30:36 10° NE visible
20 Aug -0.3 01:42:21 12° ENE 01:42:21 12° ENE 01:42:37 10° ENE visible
